Time,TemperatureF,DewpointF,PressureIn,WindDirection,WindDirectionDegrees,WindSpeedMPH,WindSpeedGustMPH,Humidity,HourlyPrecipIn,Conditions,Clouds,dailyrainin,SoftwareType,DateUTC
2013-05-28 00:03:00,52.0,52.0,29.96,SE,129,5.0,0.0,100,0.03,,,-99.99,,2013-05-28 04:03:00,
2013-05-28 00:13:00,52.0,52.0,29.96,SE,129,5.0,0.0,100,0.03,,,-99.99,,2013-05-28 04:13:00,
2013-05-28 00:22:00,52.0,52.0,29.95,East,98,7.0,0.0,100,0.03,,,-99.99,,2013-05-28 04:22:00,
2013-05-28 00:33:00,52.0,52.0,29.95,SE,132,5.0,0.0,100,0.03,,,-99.99,,2013-05-28 04:33:00,
2013-05-28 00:43:00,52.0,52.0,29.95,SE,132,5.0,0.0,100,0.03,,,-99.99,,2013-05-28 04:43:00,
2013-05-28 00:52:00,52.0,52.0,29.96,SE,136,3.0,0.0,100,0.03,,,-99.99,,2013-05-28 04:52:00,
2013-05-28 01:02:00,52.0,52.0,29.95,SE,139,7.0,0.0,100,0.03,,,-99.99,,2013-05-28 05:02:00,
2013-05-28 01:12:00,52.0,52.0,29.95,SE,139,7.0,0.0,100,0.03,,,-99.99,,2013-05-28 05:12:00,
2013-05-28 01:22:00,52.0,52.0,29.96,SE,131,4.0,0.0,100,0.03,,,-99.99,,2013-05-28 05:22:00,
2013-05-28 01:33:00,52.0,52.0,29.94,ESE,122,7.0,0.0,100,0.03,,,-99.99,,2013-05-28 05:33:00,
2013-05-28 01:42:00,52.0,52.0,29.94,ESE,122,7.0,0.0,100,0.03,,,-99.99,,2013-05-28 05:42:00,
2013-05-28 01:52:00,53.0,53.0,29.95,ENE,59,6.0,0.0,100,0.03,,,-99.99,,2013-05-28 05:52:00,
2013-05-28 02:02:00,53.0,53.0,29.95,ENE,59,6.0,0.0,100,0.03,,,-99.99,,2013-05-28 06:02:00,
2013-05-28 02:12:00,53.0,53.0,29.95,ENE,59,6.0,0.0,100,0.03,,,-99.99,,2013-05-28 06:12:00,
2013-05-28 02:22:00,52.0,52.0,29.92,ENE,73,8.0,0.0,100,0.03,,,-99.99,,2013-05-28 06:22:00,
2013-05-28 02:32:00,52.0,52.0,29.92,ESE,114,8.0,0.0,100,0.03,,,-99.99,,2013-05-28 06:32:00,
2013-05-28 02:42:00,52.0,52.0,29.92,ESE,114,8.0,0.0,100,0.03,,,-99.99,,2013-05-28 06:42:00,
2013-05-28 02:52:00,52.0,52.0,29.92,SE,136,5.0,0.0,100,0.03,,,-99.99,,2013-05-28 06:52:00,
2013-05-28 03:02:00,52.0,52.0,29.92,SE,129,5.0,0.0,100,0.03,,,-99.99,,2013-05-28 07:02:00,
2013-05-28 03:11:00,52.0,52.0,29.92,SE,129,5.0,0.0,100,0.03,,,-99.99,,2013-05-28 07:11:00,
2013-05-28 03:22:00,52.0,52.0,29.92,SE,134,6.0,0.0,100,0.03,,,-99.99,,2013-05-28 07:22:00,
2013-05-28 03:32:00,52.0,52.0,29.92,SE,134,6.0,0.0,100,0.03,,,-99.99,,2013-05-28 07:32:00,
2013-05-28 03:42:00,52.0,52.0,29.92,SE,134,6.0,0.0,100,0.03,,,-99.99,,2013-05-28 07:42:00,
2013-05-28 03:52:00,52.0,52.0,29.91,East,101,6.0,0.0,100,0.03,,,-99.99,,2013-05-28 07:52:00,
2013-05-28 04:02:00,52.0,52.0,29.91,East,101,6.0,0.0,100,0.03,,,-99.99,,2013-05-28 08:02:00,
2013-05-28 04:12:00,52.0,52.0,29.91,East,101,6.0,0.0,100,0.03,,,-99.99,,2013-05-28 08:12:00,
2013-05-28 04:22:00,52.0,52.0,29.91,East,101,6.0,0.0,100,0.03,,,-99.99,,2013-05-28 08:22:00,
2013-05-28 04:32:00,52.0,52.0,29.91,East,101,6.0,0.0,100,0.03,,,-99.99,,2013-05-28 08:32:00,
2013-05-28 04:52:00,52.0,52.0,29.89,SE,131,4.0,0.0,100,0.03,,,-99.99,,2013-05-28 08:52:00,
2013-05-28 05:01:00,52.0,52.0,29.89,SE,131,4.0,0.0,100,0.03,,,-99.99,,2013-05-28 09:01:00,
2013-05-28 05:11:00,52.0,52.0,29.89,SE,131,4.0,0.0,100,0.03,,,-99.99,,2013-05-28 09:11:00,
2013-05-28 05:21:00,52.0,52.0,29.89,ESE,110,5.0,0.0,100,0.03,,,-99.99,,2013-05-28 09:21:00,
2013-05-28 05:33:00,52.0,52.0,29.90,SE,135,4.0,0.0,100,0.03,,,-99.99,,2013-05-28 09:33:00,
2013-05-28 05:43:00,52.0,52.0,29.90,SE,135,4.0,0.0,100,0.03,,,-99.99,,2013-05-28 09:43:00,
2013-05-28 05:54:00,52.0,52.0,29.89,SE,135,0.0,0.0,100,0.03,,,-99.99,,2013-05-28 09:54:00,
2013-05-28 06:03:00,52.0,52.0,29.89,SE,141,0.0,0.0,100,0.03,,,-99.99,,2013-05-28 10:03:00,
2013-05-28 06:12:00,52.0,52.0,29.89,SE,141,0.0,0.0,100,0.03,,,-99.99,,2013-05-28 10:12:00,
2013-05-28 06:23:00,53.0,53.0,29.89,ESE,118,3.0,0.0,100,0.03,,,-99.99,,2013-05-28 10:23:00,
2013-05-28 06:32:00,53.0,53.0,29.89,ESE,122,2.0,0.0,100,0.03,,,-99.99,,2013-05-28 10:32:00,
2013-05-28 06:43:00,53.0,53.0,29.89,ESE,122,2.0,0.0,100,0.03,,,-99.99,,2013-05-28 10:43:00,
2013-05-28 06:53:00,53.0,53.0,29.89,SE,128,1.0,0.0,100,0.03,,,-99.99,,2013-05-28 10:53:00,
2013-05-28 07:02:00,53.0,53.0,29.88,SE,125,2.0,0.0,100,0.03,,,-99.99,,2013-05-28 11:02:00,
2013-05-28 07:12:00,53.0,53.0,29.88,SE,125,2.0,0.0,100,0.03,,,-99.99,,2013-05-28 11:12:00,
2013-05-28 07:22:00,53.0,53.0,29.89,SE,131,0.0,0.0,100,0.03,,,-99.99,,2013-05-28 11:22:00,
2013-05-28 07:32:00,53.0,53.0,29.89,South,172,1.0,0.0,100,0.03,,,-99.99,,2013-05-28 11:32:00,
2013-05-28 07:42:00,53.0,53.0,29.89,South,172,1.0,0.0,100,0.03,,,-99.99,,2013-05-28 11:42:00,
2013-05-28 07:52:00,53.0,53.0,29.88,SSE,155,1.0,0.0,100,0.03,,,-99.99,,2013-05-28 11:52:00,
2013-05-28 08:02:00,53.0,53.0,29.88,SSE,155,1.0,0.0,100,0.03,,,-99.99,,2013-05-28 12:02:00,
2013-05-28 08:11:00,53.0,53.0,29.88,SSE,155,1.0,0.0,100,0.03,,,-99.99,,2013-05-28 12:11:00,
2013-05-28 08:22:00,53.0,53.0,29.88,SSE,155,1.0,0.0,100,0.03,,,-99.99,,2013-05-28 12:22:00,
2013-05-28 08:32:00,54.0,54.0,29.87,ESE,107,3.0,0.0,100,0.03,,,-99.99,,2013-05-28 12:32:00,
2013-05-28 08:42:00,54.0,54.0,29.87,ESE,107,3.0,0.0,100,0.03,,,-99.99,,2013-05-28 12:42:00,
2013-05-28 08:52:00,54.0,54.0,29.87,SE,135,1.0,0.0,100,0.03,,,-99.99,,2013-05-28 12:52:00,
2013-05-28 09:01:00,54.0,54.0,29.87,SE,135,1.0,0.0,100,0.03,,,-99.99,,2013-05-28 13:01:00,
2013-05-28 09:11:00,54.0,54.0,29.87,SE,135,1.0,0.0,100,0.03,,,-99.99,,2013-05-28 13:11:00,
2013-05-28 09:32:00,55.0,55.0,29.85,East,96,5.0,0.0,100,0.03,,,-99.99,,2013-05-28 13:32:00,
2013-05-28 09:42:00,55.0,55.0,29.85,East,96,5.0,0.0,100,0.03,,,-99.99,,2013-05-28 13:42:00,
2013-05-28 09:52:00,55.0,55.0,29.84,South,173,4.0,0.0,100,0.03,,,-99.99,,2013-05-28 13:52:00,
2013-05-28 10:02:00,55.0,55.0,29.84,South,173,4.0,0.0,100,0.03,,,-99.99,,2013-05-28 14:02:00,
2013-05-28 10:12:00,55.0,55.0,29.84,South,173,4.0,0.0,100,0.03,,,-99.99,,2013-05-28 14:12:00,
2013-05-28 10:21:00,56.0,56.0,29.84,SE,136,0.0,0.0,100,0.03,,,-99.99,,2013-05-28 14:21:00,
2013-05-28 10:32:00,56.0,56.0,29.85,SE,136,0.0,0.0,100,0.03,,,-99.99,,2013-05-28 14:32:00,
2013-05-28 10:42:00,56.0,56.0,29.85,SE,136,0.0,0.0,100,0.03,,,-99.99,,2013-05-28 14:42:00,
2013-05-28 10:52:00,56.0,56.0,29.84,SE,136,0.0,0.0,100,0.03,,,-99.99,,2013-05-28 14:52:00,
2013-05-28 11:01:00,56.0,56.0,29.84,SE,136,0.0,0.0,100,0.03,,,-99.99,,2013-05-28 15:01:00,
2013-05-28 11:11:00,56.0,56.0,29.84,SE,136,0.0,0.0,100,0.03,,,-99.99,,2013-05-28 15:11:00,
2013-05-28 11:21:00,57.0,57.0,29.81,ESE,113,1.0,0.0,100,0.03,,,-99.99,,2013-05-28 15:21:00,
2013-05-28 11:33:00,57.0,57.0,29.80,SE,128,3.0,0.0,100,0.03,,,-99.99,,2013-05-28 15:33:00,
2013-05-28 11:43:00,57.0,57.0,29.80,SE,128,3.0,0.0,100,0.03,,,-99.99,,2013-05-28 15:43:00,
2013-05-28 11:53:00,57.0,57.0,29.80,SE,128,3.0,0.0,100,0.03,,,-99.99,,2013-05-28 15:53:00,
2013-05-28 12:03:00,58.0,58.0,29.83,South,186,0.0,0.0,100,0.03,,,-99.99,,2013-05-28 16:03:00,
2013-05-28 12:13:00,58.0,58.0,29.83,South,186,0.0,0.0,100,0.03,,,-99.99,,2013-05-28 16:13:00,
2013-05-28 12:23:00,58.0,58.0,29.83,South,186,0.0,0.0,100,0.03,,,-99.99,,2013-05-28 16:23:00,
2013-05-28 12:33:00,59.0,59.0,29.82,South,186,0.0,0.0,100,0.03,,,-99.99,,2013-05-28 16:33:00,
2013-05-28 12:42:00,59.0,59.0,29.82,South,186,0.0,0.0,100,0.03,,,-99.99,,2013-05-28 16:42:00,
2013-05-28 12:53:00,60.0,60.0,29.82,South,186,0.0,0.0,100,0.03,,,-99.99,,2013-05-28 16:53:00,
2013-05-28 13:02:00,60.0,60.0,29.82,South,186,0.0,0.0,100,0.03,,,-99.99,,2013-05-28 17:02:00,
2013-05-28 13:12:00,60.0,60.0,29.82,South,186,0.0,0.0,100,0.03,,,-99.99,,2013-05-28 17:12:00,
2013-05-28 13:22:00,60.0,60.0,29.82,South,186,0.0,0.0,100,0.03,,,-99.99,,2013-05-28 17:22:00,
2013-05-28 13:32:00,64.0,64.0,29.82,SSW,194,8.0,0.0,100,0.03,,,-99.99,,2013-05-28 17:32:00,
2013-05-28 13:42:00,64.0,64.0,29.82,SSW,194,8.0,0.0,100,0.03,,,-99.99,,2013-05-28 17:42:00,
2013-05-28 13:52:00,66.0,66.0,29.81,South,184,8.0,0.0,100,0.03,,,-99.99,,2013-05-28 17:52:00,
2013-05-28 14:01:00,67.0,67.0,29.81,South,190,9.0,0.0,100,0.03,,,-99.99,,2013-05-28 18:01:00,
2013-05-28 14:11:00,67.0,67.0,29.81,South,190,9.0,0.0,100,0.03,,,-99.99,,2013-05-28 18:11:00,
2013-05-28 14:22:00,69.0,69.0,29.81,SSW,212,13.0,0.0,100,0.03,,,-99.99,,2013-05-28 18:22:00,
2013-05-28 14:32:00,69.0,69.0,29.81,South,179,10.0,0.0,100,0.03,,,-99.99,,2013-05-28 18:32:00,
2013-05-28 14:42:00,69.0,69.0,29.81,South,179,10.0,0.0,100,0.03,,,-99.99,,2013-05-28 18:42:00,
2013-05-28 14:52:00,71.0,71.0,29.81,South,190,10.0,0.0,100,0.03,,,-99.99,,2013-05-28 18:52:00,
2013-05-28 15:01:00,70.0,69.0,29.81,SSW,210,15.0,0.0,97,0.03,,,-99.99,,2013-05-28 19:01:00,
2013-05-28 15:11:00,70.0,69.0,29.81,SSW,210,15.0,0.0,97,0.03,,,-99.99,,2013-05-28 19:11:00,
2013-05-28 15:21:00,70.0,69.0,29.81,SSW,201,9.0,0.0,96,0.03,,,-99.99,,2013-05-28 19:21:00,
2013-05-28 15:32:00,70.0,68.0,29.81,SSW,197,10.0,0.0,95,0.03,,,-99.99,,2013-05-28 19:32:00,
2013-05-28 15:42:00,70.0,68.0,29.81,SSW,197,10.0,0.0,95,0.03,,,-99.99,,2013-05-28 19:42:00,
2013-05-28 15:52:00,70.0,68.0,29.81,SSW,197,10.0,0.0,95,0.03,,,-99.99,,2013-05-28 19:52:00,
2013-05-28 16:02:00,71.0,69.0,29.81,SSW,200,11.0,0.0,94,0.03,,,-99.99,,2013-05-28 20:02:00,
2013-05-28 16:11:00,71.0,69.0,29.81,SSW,200,11.0,0.0,94,0.03,,,-99.99,,2013-05-28 20:11:00,
2013-05-28 16:22:00,71.0,69.0,29.80,SW,218,10.0,0.0,93,0.03,,,-99.99,,2013-05-28 20:22:00,
2013-05-28 16:32:00,71.0,69.0,29.80,SSW,197,8.0,0.0,93,0.03,,,-99.99,,2013-05-28 20:32:00,
2013-05-28 16:42:00,71.0,69.0,29.80,SSW,197,8.0,0.0,93,0.03,,,-99.99,,2013-05-28 20:42:00,
2013-05-28 16:52:00,72.0,70.0,29.80,South,186,8.0,0.0,92,0.03,,,-99.99,,2013-05-28 20:52:00,
2013-05-28 17:02:00,72.0,69.0,29.80,SW,214,11.0,0.0,90,0.03,,,-99.99,,2013-05-28 21:02:00,
2013-05-28 17:11:00,72.0,69.0,29.80,SW,214,11.0,0.0,90,0.03,,,-99.99,,2013-05-28 21:11:00,
2013-05-28 17:22:00,72.0,69.0,29.80,SSW,200,9.0,0.0,89,0.03,,,-99.99,,2013-05-28 21:22:00,
2013-05-28 17:33:00,72.0,69.0,29.79,South,179,7.0,0.0,90,0.03,,,-99.99,,2013-05-28 21:33:00,
2013-05-28 17:43:00,72.0,69.0,29.79,South,179,7.0,0.0,90,0.03,,,-99.99,,2013-05-28 21:43:00,
2013-05-28 17:53:00,72.0,70.0,29.79,SW,221,7.0,0.0,92,0.03,,,-99.99,,2013-05-28 21:53:00,
2013-05-28 18:02:00,72.0,70.0,29.79,SW,221,7.0,0.0,92,0.03,,,-99.99,,2013-05-28 22:02:00,
2013-05-28 18:13:00,72.0,70.0,29.79,SW,221,7.0,0.0,92,0.03,,,-99.99,,2013-05-28 22:13:00,
2013-05-28 18:22:00,71.0,69.0,29.79,SW,218,8.0,0.0,94,0.03,,,-99.99,,2013-05-28 22:22:00,
2013-05-28 18:33:00,70.0,68.0,29.78,SSW,211,7.0,0.0,95,0.03,,,-99.99,,2013-05-28 22:33:00,
2013-05-28 18:42:00,70.0,68.0,29.78,SSW,211,7.0,0.0,95,0.03,,,-99.99,,2013-05-28 22:42:00,
2013-05-28 18:52:00,70.0,69.0,29.78,SSW,208,8.0,0.0,96,0.03,,,-99.99,,2013-05-28 22:52:00,
2013-05-28 19:02:00,70.0,69.0,29.78,SSW,208,8.0,0.0,96,0.03,,,-99.99,,2013-05-28 23:02:00,
2013-05-28 19:11:00,70.0,69.0,29.78,SSW,208,8.0,0.0,96,0.03,,,-99.99,,2013-05-28 23:11:00,
2013-05-28 19:22:00,69.0,69.0,29.78,SSW,201,7.0,0.0,100,0.03,,,-99.99,,2013-05-28 23:22:00,
2013-05-28 19:32:00,68.0,68.0,29.78,SW,218,0.0,0.0,100,0.03,,,-99.99,,2013-05-28 23:32:00,
2013-05-28 19:42:00,68.0,68.0,29.78,SW,218,0.0,0.0,100,0.03,,,-99.99,,2013-05-28 23:42:00,
2013-05-28 19:52:00,68.0,68.0,29.78,SW,219,1.0,0.0,100,0.03,,,-99.99,,2013-05-28 23:52:00,
2013-05-28 20:02:00,68.0,68.0,29.78,WSW,249,0.0,0.0,100,0.03,,,-99.99,,2013-05-29 00:02:00,
2013-05-28 20:11:00,68.0,68.0,29.78,WSW,249,0.0,0.0,100,0.03,,,-99.99,,2013-05-29 00:11:00,
2013-05-28 20:22:00,68.0,68.0,29.78,WSW,249,0.0,0.0,100,0.03,,,-99.99,,2013-05-29 00:22:00,
2013-05-28 20:32:00,68.0,68.0,29.77,SSW,195,0.0,0.0,100,0.03,,,-99.99,,2013-05-29 00:32:00,
2013-05-28 20:42:00,68.0,68.0,29.77,SSW,195,0.0,0.0,100,0.03,,,-99.99,,2013-05-29 00:42:00,
2013-05-28 20:52:00,68.0,68.0,29.77,SSW,195,0.0,0.0,100,0.03,,,-99.99,,2013-05-29 00:52:00,
2013-05-28 21:01:00,68.0,68.0,29.77,SSW,195,0.0,0.0,100,0.03,,,-99.99,,2013-05-29 01:01:00,
2013-05-28 21:11:00,68.0,68.0,29.77,SSW,195,0.0,0.0,100,0.03,,,-99.99,,2013-05-29 01:11:00,
2013-05-28 21:22:00,68.0,68.0,29.76,SSW,195,0.0,0.0,100,0.03,,,-99.99,,2013-05-29 01:22:00,
2013-05-28 21:32:00,68.0,68.0,29.76,SSW,195,0.0,0.0,100,0.03,,,-99.99,,2013-05-29 01:32:00,
2013-05-28 21:42:00,68.0,68.0,29.76,SSW,195,0.0,0.0,100,0.03,,,-99.99,,2013-05-29 01:42:00,
2013-05-28 21:52:00,68.0,68.0,29.77,SW,224,1.0,0.0,100,0.03,,,-99.99,,2013-05-29 01:52:00,
2013-05-28 22:02:00,68.0,68.0,29.77,SSW,203,0.0,0.0,100,0.03,,,-99.99,,2013-05-29 02:02:00,
2013-05-28 22:12:00,68.0,68.0,29.77,SSW,203,0.0,0.0,100,0.03,,,-99.99,,2013-05-29 02:12:00,
2013-05-28 22:21:00,68.0,68.0,29.77,SSW,203,0.0,0.0,100,0.03,,,-99.99,,2013-05-29 02:21:00,
2013-05-28 22:32:00,68.0,68.0,29.77,SSW,203,0.0,0.0,100,0.03,,,-99.99,,2013-05-29 02:32:00,
2013-05-28 22:42:00,68.0,68.0,29.76,SW,218,0.0,0.0,100,0.03,,,-99.99,,2013-05-29 02:42:00,
2013-05-28 22:52:00,68.0,68.0,29.76,SW,218,0.0,0.0,100,0.03,,,-99.99,,2013-05-29 02:52:00,
2013-05-28 23:02:00,68.0,68.0,29.76,SW,218,0.0,0.0,100,0.03,,,-99.99,,2013-05-29 03:02:00,
2013-05-28 23:12:00,68.0,68.0,29.76,SW,218,0.0,0.0,100,0.03,,,-99.99,,2013-05-29 03:12:00,
2013-05-28 23:22:00,68.0,68.0,29.77,SSW,210,5.0,0.0,100,0.03,,,-99.99,,2013-05-29 03:22:00,
2013-05-28 23:33:00,68.0,68.0,29.77,SSW,210,5.0,0.0,100,0.03,,,-99.99,,2013-05-29 03:33:00,
2013-05-28 23:43:00,68.0,68.0,29.77,SSW,210,5.0,0.0,100,0.03,,,-99.99,,2013-05-29 03:43:00,
2013-05-28 23:53:00,68.0,68.0,29.77,SSW,210,5.0,0.0,100,0.03,,,-99.99,,2013-05-29 03:53:00,